This demonstration page uses our WeatherBlox Daily Observations layout. Learn more.

Left ArrowRight Arrow

Hourly Observations for February 4, 2022

Temp ( °F °C ) Dew Point ( °F °C ) Humidity (%) Winds ( mph kmh ) Pressure ( in mb ) Visibility ( mi km ) Precip ( " mm )
12:53 am 00:53 Clear 46 7.8 29 -1.7 51 51 NNW 7 11 30.36 1028 10 16 0.00 0.00
1:53 am 01:53 Clear 49 9.4 28 -2.2 44 44 N 5 7 30.36 1028 10 16 0.00 0.00
2:53 am 02:53 Clear 52 11.1 28 -2.2 40 40 N 8 13 30.36 1028 10 16 0.00 0.00
3:53 am 03:53 Clear 41 5 30 -1.1 65 65 Calm 30.37 1029 10 16 0.00 0.00
4:53 am 04:53 Clear 39 3.9 29 -1.7 67 67 SSW 3 6 30.37 1029 10 16 0.00 0.00
5:53 am 05:53 Clear 38 3.3 28 -2.2 68 68 N 3 6 30.40 1029 10 16 0.00 0.00
6:53 am 06:53 Clear 35 1.7 28 -2.2 76 76 Calm 30.41 1030 10 16 0.00 0.00
7:53 am 07:53 Sunny 38 3.3 28 -2.2 68 68 Calm 30.43 1030 9 14 0.00 0.00
8:53 am 08:53 Sunny 41 5 30 -1.1 65 65 Calm 30.45 1031 10 16 0.00 0.00
9:53 am 09:53 Sunny 49 9.4 32 0 52 52 Calm 30.43 1031 10 16 0.00 0.00
10:53 am 10:53 Sunny 56 13.3 33 0.6 42 42 Calm 30.44 1031 10 16 0.00 0.00
11:53 am 11:53 Sunny 60 15.6 31 -0.6 33 33 Calm 30.42 1030 10 16 0.00 0.00
12:53 pm 12:53 Sunny 63 17.2 31 -0.6 30 30 SE 3 6 30.40 1029 10 16 0.00 0.00
1:53 pm 13:53 Sunny 65 18.3 28 -2.2 25 25 S 3 6 30.38 1029 10 16 0.00 0.00
2:53 pm 14:53 Sunny 65 18.3 26 -3.3 23 23 S 6 9 30.36 1028 10 16 0.00 0.00
3:53 pm 15:53 Sunny 66 18.9 28 -2.2 24 24 SSE 6 9 30.37 1028 10 16 0.00 0.00
4:53 pm 16:53 Sunny 63 17.2 31 -0.6 30 30 SSE 5 7 30.36 1028 10 16 0.00 0.00
5:53 pm 17:53 Clear 57 13.9 31 -0.6 37 37 Calm 30.37 1028 10 16 0.00 0.00
6:53 pm 18:53 Clear 53 11.7 34 1.1 48 48 Calm 30.38 1029 10 16 0.00 0.00
7:53 pm 19:53 Clear 50 10 33 0.6 52 52 Calm 30.39 1029 10 16 0.00 0.00
8:53 pm 20:53 Clear 48 8.9 30 -1.1 50 50 Calm 30.39 1029 10 16 0.00 0.00
9:53 pm 21:53 Clear 46 7.8 31 -0.6 56 56 Calm 30.40 1030 10 16 0.00 0.00
10:53 pm 22:53 Clear 45 7.2 31 -0.6 58 58 WNW 3 6 30.40 1029 10 16 0.00 0.00
11:53 pm 23:53 Clear 45 7.2 31 -0.6 58 58 NNW 5 7 30.38 1029 8 13 0.00 0.00

Powered by AerisWeather